Terug naar catalogus

METEOR 2-8 DEB

ActiefPO
NORAD 36859·DEBRIS·🇷🇺 Russia

Gelanceerd Mar 25, 1982 vanaf Plesetsk Cosmodrome

Loading…

Volgende Passages (komende 24 uur)

TLE

VersSource: Space-Track

Epoch: Sep 14, 2026, 09:22 UTC

1 36859U 82025AW  26257.39082061  .00000868  00000-0  36839-3 0  9993
2 36859  82.5147 139.3559 0032565 212.1224 147.7975 14.24128357115701

Volg METEOR 2-8 DEB in realtime met AllMySat

Download on the App Store